Location: Days
(41.3591°N, 106.7339°W)
Time: 07:37:57
(UTC+00:00)

AIST 2D - Pass Details

Date: 03 July 2022
Orbit: 433 x 443 km, 97.0° (Epoch: 14 August)

Event Time Altitude Azimuth Distance (km) Brightness Sun altitude
Rises 05:24:12 0° 357° (N) 2,425 ? -21.1°
Reaches altitude 10° 05:26:29 10° 343° (NNW) 1,553 ? -21.3°
Maximum altitude 05:29:09 23° 289° (WNW) 991 ? -21.5°
Enters shadow 05:30:46 16° 250° (WSW) 1,225 ? -21.6°
